User: anonymous   Login
Location: Goheenville
(40.9070°N, 79.3720°W)
Time: 23:35:29
(UTC-04:00)
Language:

NOAA 11 - Orbit

View from above orbital plane
View from above orbital plane
View from above satellite
View from above satellite

Ground track
Ground track

The orbit data is extracted from the following two-line orbital elements,

1 19531U 88089A   16270.19463620 -.00000013  00000-0  14715-4 0  9996
2 19531  98.5919 332.9403 0012302  77.5727 282.6823 14.15194286445419
Epoch (UTC): 26 September 2016 04:40:16
Eccentricity: 0.0012302
inclination: 98.5919°
perigee height: 833 km
apogee height: 850 km
right ascension of ascending node: 332.9403°
argument of perigee: 77.5727°
revolutions per day: 14.15194286
mean anomaly at epoch: 282.6823°
orbit number at epoch: 44541

The dashed part of the orbit path shows where the satellite is in the earth's shadow,  

DLR